Stations météo

réclame
Mon MeteoGroup
List/Sylt, Allemagne (10020): Température de l'air & dewpoint: 09.09.2019 12:00:00 - 15.09.2019 12:00:00 (CEST)List/Sylt, Allemagne (10020): Température de l'air 5cm & Température de l'air -5cm: 09.09.2019 12:00:00 - 15.09.2019 12:00:00 (CEST)List/Sylt, Allemagne (10020): Température de l'air -20cm: 09.09.2019 12:00:00 - 15.09.2019 12:00:00 (CEST)List/Sylt, Allemagne (10020): Vitesse du vent & gusts: 09.09.2019 12:00:00 - 15.09.2019 12:00:00 (CEST)List/Sylt, Allemagne (10020): Direction du vent: 09.09.2019 12:00:00 - 15.09.2019 12:00:00 (CEST)List/Sylt, Allemagne (10020): reduced air pressure: 09.09.2019 12:00:00 - 15.09.2019 12:00:00 (CEST)List/Sylt, Allemagne (10020): visibility: 09.09.2019 12:00:00 - 15.09.2019 12:00:00 (CEST)List/Sylt, Allemagne (10020): Ensoleillement: 09.09.2019 12:00:00 - 15.09.2019 12:00:00 (CEST)List/Sylt, Allemagne (10020): Quantités de précipitations: 09.09.2019 12:00:00 - 15.09.2019 12:00:00 (CEST)
Date & Time tt [°C] td [°C] tt 5cm [°C] tt -5cm [°C] tt -20cm [°C] ff [km/h] ff [knt] fx [km/h] fx [knt] dd ppp [hPa] vv [km] sd [min] rr [mm]
15.09.2019 12:00:00 17,3 13,3 18,1 15,5 15,2 43 23 58 32 W 1015,3 24 17 0,0
15.09.2019 11:00:00 15,9 14,2 15,6 15,3 15,2 39 21 61 33 W 1015,2 21 0 0,2
15.09.2019 10:00:00 15,8 14,3 15,4 15,1 15,1 40 22 55 30 W 1015,2 7 0 0,0
15.09.2019 09:00:00 15,7 14,1 15,2 14,9 15,1 41 22 65 35 W 1015,3 6 0 0,0
15.09.2019 08:00:00 17,4 12,7 17,2 14,8 15,1 40 21 62 34 W 1015,4 20 0 0,0
15.09.2019 07:00:00 17,2 12,4 16,4 14,7 15,1 47 26 63 34 WSW 1015,3 22 0 0,0
15.09.2019 06:00:00 16,8 12,3 15,9 14,7 15,2 46 25 64 35 WSW 1016,2 22 0 0,0
15.09.2019 05:00:00 16,5 11,9 15,6 14,6 15,2 39 21 63 34 WSW 1017,0 26 0 0,0
15.09.2019 04:00:00 16,4 10,5 15,5 14,7 15,3 45 24 66 35 SW 1018,4 35 0 0,0
15.09.2019 03:00:00 16,2 10,9 15,3 14,7 15,4 39 21 65 35 SW 1019,5 34 0 0,0
15.09.2019 02:00:00 16,2 10,3 15,3 14,8 15,4 43 23 64 34 SW 1020,9 40 0 0,0
15.09.2019 01:00:00 15,9 10,2 15,0 14,9 15,5 39 21 60 33 SW 1022,1 43 0 0,0
15.09.2019 00:00:00 15,7 10,4 14,9 15,0 15,6 35 19 61 33 SW 1023,4 44 0 0,0
14.09.2019 23:00:00 15,7 10,8 15,2 15,1 15,7 37 20 56 30 SW 1024,4 41 0 0,0
14.09.2019 22:00:00 15,5 9,4 14,6 15,3 15,8 39 21 51 28 SW 1025,3 49 0 0,0
14.09.2019 21:00:00 15,2 9,3 14,3 15,5 15,9 30 16 46 25 WSW 1026,5 48 0 0,0
14.09.2019 20:00:00 15,2 9,0 14,3 15,9 16,0 27 15 41 22 SW 1027,1 57 0 0,0
14.09.2019 19:00:00 15,3 8,3 14,8 16,4 16,1 23 13 39 21 SW 1028,2 48 16 0,0
14.09.2019 18:00:00 15,6 8,0 15,7 16,9 16,0 27 15 41 22 WSW 1028,9 51 36 0,0
14.09.2019 17:00:00 16,6 7,9 19,4 17,3 15,9 28 15 44 24 WSW 1029,8 47 46 0,0
14.09.2019 16:00:00 17,4 8,2 20,8 17,3 15,6 27 15 42 23 WSW 1030,8 58 54 0,0
14.09.2019 15:00:00 16,1 7,0 17,9 17,2 15,4 24 13 37 20 WSW 1031,5 59 51 0,0
14.09.2019 14:00:00 16,7 7,5 20,4 16,7 15,1 26 14 36 20 WSW 1032,2 64 47 0,0
14.09.2019 13:00:00 16,6 7,2 21,2 16,1 14,8 23 13 36 19 W 1032,8 50 58 0,0
14.09.2019 12:00:00 16,4 7,2 19,9 15,3 14,6 23 12 34 18 WSW 1033,4 65 60 0,0
14.09.2019 11:00:00 16,1 7,5 19,2 14,5 14,5 21 11 31 17 W 1033,0 45 47 0,0
14.09.2019 10:00:00 15,4 7,2 16,6 14,0 14,4 20 11 30 16 W 1033,6 58 54 0,0
14.09.2019 09:00:00 15,0 7,1 16,1 13,4 14,5 19 10 26 14 W 1033,5 50 55 0,0
14.09.2019 08:00:00 13,8 7,4 12,6 13,3 14,6 18 10 26 14 WNW 1033,2 47 0 0,0
14.09.2019 07:00:00 13,9 6,6 12,4 13,3 14,7 21 12 29 16 WNW 1033,4 50 0 0,0
14.09.2019 06:00:00 13,7 6,2 11,7 13,4 14,8 18 10 25 14 WNW 1033,5 47 0 0,0
14.09.2019 05:00:00 13,4 6,4 11,8 13,6 14,9 19 11 29 16 WNW 1033,4 44 0 0,0
14.09.2019 04:00:00 14,1 6,9 12,9 13,8 15,1 24 13 31 17 WNW 1033,8 47 0 0,0
14.09.2019 03:00:00 13,6 6,3 11,8 13,9 15,2 19 10 30 16 WNW 1034,1 40 0 0,0
14.09.2019 02:00:00 13,9 6,9 12,7 14,1 15,3 20 11 35 19 NW 1033,8 44 0 0,0
14.09.2019 01:00:00 14,1 6,9 13,0 14,3 15,5 24 13 35 19 NW 1033,9 39 0 0,0
14.09.2019 00:00:00 14,3 7,2 13,2 14,5 15,6 26 14 40 22 NW 1033,9 52 0 0,0
13.09.2019 23:00:00 13,9 6,7 12,5 14,7 15,8 26 14 36 19 NW 1033,7 41 0 0,0
13.09.2019 22:00:00 14,2 6,8 12,7 15,0 16,0 26 14 37 20 NW 1033,1 40 0 0,0
13.09.2019 21:00:00 14,3 6,4 12,8 15,3 16,1 27 14 40 22 NW 1032,8 49 0 0,0
13.09.2019 20:00:00 14,6 6,9 13,6 15,8 16,3 31 17 45 24 NW 1032,5 41 9 0,0
13.09.2019 19:00:00 15,3 8,1 15,1 16,2 16,3 32 18 46 25 NW 1032,4 42 21 0,0
13.09.2019 18:00:00 16,3 8,0 17,2 16,7 16,4 34 18 48 26 NW 1031,6 46 38 0,0
13.09.2019 17:00:00 16,1 8,7 17,5 17,1 16,3 34 18 46 25 NW 1031,9 40 47 0,0
13.09.2019 16:00:00 16,9 7,4 19,5 17,1 16,2 35 19 47 26 NW 1031,5 38 60 0,0
13.09.2019 15:00:00 17,6 8,2 20,4 17,0 16,0 38 21 52 28 NW 1031,2 46 55 0,0
13.09.2019 14:00:00 16,0 7,6 17,1 16,7 15,9 38 20 48 26 WNW 1030,6 41 44 0,0
13.09.2019 13:00:00 16,7 6,7 19,3 16,2 15,8 37 20 49 27 NW 1029,8 38 50 0,0
13.09.2019 12:00:00 16,1 6,5 17,5 15,9 15,7 41 22 54 29 NW 1029,3 35 54 0,0
13.09.2019 11:00:00 15,8 8,0 16,8 15,5 15,7 37 20 53 29 NW 1028,6 35 31 0,0
13.09.2019 10:00:00 15,4 8,0 15,8 15,3 15,8 36 19 50 27 NW 1027,4 45 46 0,0
13.09.2019 09:00:00 15,1 8,5 15,0 15,2 15,9 37 20 55 30 NW 1026,2 41 48 0,0
13.09.2019 08:00:00 14,8 9,7 14,0 15,4 16,0 37 20 53 29 NNW 1025,2 40 15 0,0
13.09.2019 07:00:00 14,9 11,4 13,6 15,7 16,0 39 21 50 27 NNW 1024,0 34 0 0,0
13.09.2019 06:00:00 15,1 12,3 14,0 15,9 16,1 33 18 48 26 NNW 1022,7 44 0 0,0
13.09.2019 05:00:00 15,1 13,3 14,3 16,2 16,1 37 20 50 27 NNW 1021,7 58 0 0,0
13.09.2019 04:00:00 16,4 15,4 16,0 16,3 16,1 35 19 57 31 WNW 1020,8 11 0 0,5
13.09.2019 03:00:00 17,2 16,2 16,7 16,3 16,1 35 19 56 30 W 1020,2 10 0 0,2
13.09.2019 02:00:00 17,4 16,5 17,0 16,2 16,1 37 20 51 28 SW 1020,2 13 0 0,7
13.09.2019 01:00:00 16,8 16,0 16,5 16,2 16,1 29 16 51 28 SW 1020,9 7 0 0,2
13.09.2019 00:00:00 17,3 14,6 17,1 16,1 16,2 33 18 49 27 SW 1021,7 19 0 0,0
12.09.2019 23:00:00 17,1 13,6 16,8 16,2 16,2 29 15 50 27 WSW 1022,3 23 0 0,0
12.09.2019 22:00:00 17,1 12,9 16,8 16,2 16,3 35 19 48 26 WSW 1022,9 24 0 0,0
12.09.2019 21:00:00 17,1 12,4 16,6 16,4 16,4 31 17 54 29 WSW 1023,1 29 0 0,0
12.09.2019 20:00:00 17,0 12,2 16,5 16,7 16,4 32 18 47 25 WSW 1022,9 26 0 0,0
12.09.2019 19:00:00 17,1 11,8 16,6 17,0 16,4 30 16 48 26 SW 1023,1 35 7 0,0
12.09.2019 18:00:00 17,5 11,9 17,9 17,4 16,3 32 17 52 28 WSW 1023,3 30 17 0,0
12.09.2019 17:00:00 17,5 11,6 18,1 17,7 16,2 30 16 48 26 WSW 1023,6 33 33 0,0
12.09.2019 16:00:00 18,6 11,8 21,7 17,8 15,9 32 17 46 25 WSW 1023,6 32 51 0,0
12.09.2019 15:00:00 18,6 11,2 21,4 17,5 15,7 34 19 46 25 WSW 1023,5 49 58 0,0
12.09.2019 14:00:00 18,2 11,0 21,1 16,9 15,4 31 17 44 24 W 1023,6 40 47 0,0
12.09.2019 13:00:00 17,9 11,0 21,1 16,1 15,2 26 14 38 20 W 1023,3 35 15 0,0
12.09.2019 12:00:00 17,8 11,1 20,1 15,7 15,1 29 16 47 26 W 1023,0 34 46 0,0
12.09.2019 11:00:00 16,6 12,1 15,9 15,1 15,0 26 14 46 25 W 1022,5 34 0 0,0
12.09.2019 10:00:00 17,4 12,2 17,6 14,9 14,9 24 13 39 21 WSW 1021,8 37 19 0,0
12.09.2019 09:00:00 16,8 11,0 16,4 14,6 14,9 22 12 33 18 WSW 1021,3 34 0 0,0
12.09.2019 08:00:00 16,5 11,4 15,7 14,5 14,9 28 15 40 22 W 1020,7 40 3 0,0
12.09.2019 07:00:00 16,3 11,5 15,6 14,4 14,9 25 14 36 19 WSW 1020,2 31 0 0,0
12.09.2019 06:00:00 16,1 10,8 14,8 14,4 15,0 18 10 38 21 W 1019,9 34 0 0,0
12.09.2019 05:00:00 16,3 11,3 15,4 14,3 15,0 23 13 33 18 W 1019,5 33 0 0,0
12.09.2019 04:00:00 15,8 10,6 14,5 14,3 15,1 23 13 36 19 W 1019,2 33 0 0,0
12.09.2019 03:00:00 15,7 10,5 14,4 14,4 15,1 26 14 37 20 W 1019,0 37 0 0,0
12.09.2019 02:00:00 15,6 10,7 13,7 14,5 15,2 29 15 40 22 W 1018,4 33 0 0,0
12.09.2019 01:00:00 15,7 11,5 13,8 14,7 15,3 26 14 38 21 W 1017,6 32 0 0,0
12.09.2019 00:00:00 15,6 11,4 13,7 14,8 15,4 26 14 47 26 W 1017,1 27 0 0,0
11.09.2019 23:00:00 15,6 11,6 13,7 15,0 15,4 33 18 47 26 W 1016,6 26 0 0,0
11.09.2019 22:00:00 15,6 11,4 13,7 15,2 15,5 37 20 52 28 WNW 1015,7 25 0 0,0
11.09.2019 21:00:00 16,6 14,0 15,3 15,4 15,5 32 17 46 25 W 1014,6 23 0 0,1
11.09.2019 20:00:00 15,4 13,5 14,5 15,5 15,4 36 20 56 30 W 1013,8 12 0 0,4
11.09.2019 19:00:00 16,3 15,6 16,1 15,4 15,4 31 17 70 38 WSW 1013,2 3,0 0 0,9
11.09.2019 18:00:00 15,4 14,4 15,1 15,3 15,4 51 27 76 41 SSW 1012,9 4,2 0 0,7
11.09.2019 17:00:00 15,2 13,8 14,7 15,2 15,4 56 31 80 43 SW 1013,1 3,1 0 1,1
11.09.2019 16:00:00 14,7 13,3 14,2 15,2 15,4 48 26 82 44 SSW 1013,5 5 0 1,8
11.09.2019 15:00:00 15,0 13,5 14,5 15,3 15,4 53 29 80 43 SW 1013,7 3,6 0 2,3
11.09.2019 14:00:00 15,3 13,6 14,6 15,3 15,4 51 28 74 40 SW 1014,0 3,9 0 2,9
11.09.2019 13:00:00 15,5 13,6 14,7 15,3 15,3 45 24 63 34 SSW 1014,2 4,4 0 1,1
11.09.2019 12:00:00 16,1 12,4 15,0 15,4 15,2 39 21 65 35 SSW 1014,6 14 0 0,0
11.09.2019 11:00:00 16,9 12,0 17,7 15,1 15,2 45 24 68 37 SSW 1014,7 36 0 0,0
11.09.2019 10:00:00 16,4 11,5 16,0 14,9 15,1 46 25 65 35 SSW 1014,5 35 26 0,0
11.09.2019 09:00:00 16,7 10,6 17,3 14,6 15,1 29 16 53 28 SW 1014,8 43 39 0,0
11.09.2019 08:00:00 15,5 10,6 14,3 14,4 15,2 37 20 50 27 SW 1014,8 48 2 0,0
11.09.2019 07:00:00 15,2 11,2 14,1 14,2 15,3 23 12 34 18 SSW 1015,4 49 0 0,0
11.09.2019 06:00:00 14,7 10,2 13,2 14,3 15,4 22 12 38 21 SW 1015,8 55 0 0,0
11.09.2019 05:00:00 14,9 9,1 13,3 14,4 15,5 23 12 41 22 SW 1016,3 61 0 0,0
11.09.2019 04:00:00 14,7 9,0 13,0 14,6 15,6 23 12 36 20 WSW 1016,7 57 0 0,0
11.09.2019 03:00:00 15,1 9,7 13,6 14,7 15,7 27 15 36 19 WSW 1017,0 64 0 0,0
11.09.2019 02:00:00 15,4 11,2 14,2 14,8 15,8 16 9 26 14 W 1016,6 48 0 0,0
11.09.2019 01:00:00 15,0 10,2 13,5 15,0 16,0 21 11 36 20 W 1016,5 51 0 0,0
11.09.2019 00:00:00 15,1 9,9 13,6 15,3 16,1 27 15 40 22 WNW 1016,6 66 0 0,0
10.09.2019 23:00:00 15,2 9,9 14,0 15,5 16,2 31 17 42 23 WNW 1016,5 53 0 0,0
10.09.2019 22:00:00 15,4 10,7 14,2 15,8 16,3 31 17 45 24 WNW 1015,8 53 0 0,0
10.09.2019 21:00:00 15,8 11,7 15,3 16,1 16,4 33 18 51 27 WNW 1015,4 44 0 0,0
10.09.2019 20:00:00 15,9 11,6 15,0 16,3 16,4 35 19 46 25 WNW 1014,9 46 5 0,0
10.09.2019 19:00:00 16,2 12,2 15,5 16,5 16,4 34 18 49 26 WNW 1014,7 45 18 0,0
10.09.2019 18:00:00 16,3 11,9 15,7 16,6 16,4 35 19 49 26 WNW 1014,4 45 39 0,0
10.09.2019 17:00:00 16,2 12,5 15,7 16,5 16,4 34 18 46 25 NW 1014,0 50 5 0,6
10.09.2019 16:00:00 15,0 12,7 14,9 16,5 16,3 34 19 56 30 NW 1013,9 42 0 0,9
10.09.2019 15:00:00 14,3 12,5 14,1 16,5 16,3 34 19 53 28 NW 1013,5 18 0 0,9
10.09.2019 14:00:00 15,4 12,9 15,2 16,4 16,3 37 20 48 26 NW 1013,1 21 0 0,2
10.09.2019 13:00:00 15,4 12,3 14,6 16,5 16,2 36 19 49 26 NW 1012,5 12 0 0,0
10.09.2019 12:00:00 16,3 12,7 16,1 16,3 16,2 35 19 56 30 NW 1012,3 57 1 1,4
10.09.2019 11:00:00 14,6 11,9 14,0 16,2 16,1 39 21 52 28 NW 1012,2 7 7 0,0
10.09.2019 10:00:00 17,0 11,4 18,2 15,9 16,1 34 18 46 25 NW 1012,0 56 24 0,0
10.09.2019 09:00:00 16,3 11,1 16,6 15,6 16,2 34 18 46 25 NW 1011,7 48 0 0,0
10.09.2019 08:00:00 16,0 10,9 15,5 15,5 16,3 29 16 40 21 NW 1011,6 54 0 0,0
10.09.2019 07:00:00 15,4 11,5 14,7 15,5 16,4 24 13 32 17 NW 1011,7 61 0 0,0
10.09.2019 06:00:00 15,0 11,3 14,3 15,6 16,5 21 11 31 17 NW 1011,5 57 0 0,0
10.09.2019 05:00:00 14,6 11,7 13,6 15,7 16,6 19 11 24 13 NW 1011,8 50 0 0,0
10.09.2019 04:00:00 13,7 11,3 12,7 16,0 16,8 15 8 21 12 NW 1012,3 49 0 0,0
10.09.2019 03:00:00 13,6 10,9 13,0 16,2 16,9 11 6 15 8 NNW 1012,4 51 0 0,0
10.09.2019 02:00:00 13,5 10,3 13,0 16,3 17,0 11 6 17 9 N 1012,8 56 0 0,0
10.09.2019 01:00:00 13,4 11,1 12,4 16,6 17,2 14 8 18 10 NNE 1012,9 42 0 0,0
10.09.2019 00:00:00 14,7 12,4 14,4 16,8 17,3 10 5 21 11 NNE 1012,9 28 0 0,0
09.09.2019 23:00:00 14,5 11,2 13,3 17,0 17,5 9 5 15 8 NNW 1013,0 75 0 0,0
09.09.2019 22:00:00 15,1 11,1 14,4 17,3 17,6 15 8 20 11 N 1013,2 73 0 0,0
09.09.2019 21:00:00 15,0 11,0 14,3 17,7 17,8 15 8 19 11 NNW 1013,3 74 0 0,0
09.09.2019 20:00:00 15,6 10,9 15,1 18,3 17,8 14 8 19 11 NNW 1013,1 74 1 0,0
09.09.2019 19:00:00 16,4 11,4 16,5 18,9 17,8 14 8 21 11 NW 1013,1 67 39 0,0
09.09.2019 18:00:00 17,5 11,2 20,5 19,3 17,8 15 8 21 11 NW 1013,1 75 48 0,0
09.09.2019 17:00:00 16,9 10,8 19,0 19,7 17,6 16 9 22 12 NW 1012,8 52 30 0,0
09.09.2019 16:00:00 17,7 11,2 23,4 19,8 17,3 11 6 18 10 WNW 1013,3 68 26 0,0
09.09.2019 15:00:00 17,7 10,4 21,0 20,1 16,9 3 2 17 9 ESE 1013,7 75 43 0,0
09.09.2019 14:00:00 17,9 10,3 25,9 19,3 16,5 8 5 16 8 SSE 1013,9 69 60 0,0
09.09.2019 13:00:00 17,7 12,1 25,1 18,3 16,1 9 5 15 8 SE 1013,9 55 59 0,0
09.09.2019 12:00:00 16,6 11,8 22,8 17,3 15,8 8 5 16 8 SE 1014,2 43 60 0,0

tt = Température de l'air
td = dewpoint
tt 5cm = Température de l'air 5cm
tt -5cm = Température de l'air -5cm
tt -20cm = Température de l'air -20cm
ff = Vitesse du vent
fx = gusts
dd = Direction du vent
ppp = reduced air pressure
vv = visibility
sd = Ensoleillement
rr = Quantités de précipitations

stations d'obs. à proximité